CCA932 EDDF-ZBAA

Flight info

Callsign CCA932
Flight time N/A
Altitude 33000
Route TOBAK1D TOBAK N858 FEDZA Y172 MAG DCT BINKA N746 GORPI DCT KOLJA DCT EVONA DCT NETNA/N0481F350 DCT TUKMA P989 MEGAS/K0893F350 P989 OBIBA P997 AKUGI T635 SADER T580 ADMUR G117 XV R229 DILOR/K0883F370 R229 BA R104 GINOM/K0889S1130 Y655 INTIK A575 LHT B458 BIKUT W69 GUVBA GUVBA7X
Aircraft B77W/H-SDE1E2E3FGHIJ2J3J4J5M1RWXY/LB1D1

Departure

Time N/A
Airport Frankfurt Main Airport (EDDF)

Arrival

Time 2026-05-01 08:28
Airport Beijing Capital International Airport (ZBAA)
Time Latitude Longitude Altitude Speed Heading
2026-05-01 07:57 40.44900 115.23110 34141 ft 557 kts 94°
2026-05-01 07:58 40.44367 115.33273 32521 ft 557 kts 94°
2026-05-01 07:58 40.43824 115.43449 30808 ft 559 kts 94°
2026-05-01 07:59 40.43277 115.53602 29112 ft 549 kts 94°
2026-05-01 07:59 40.43145 115.63346 27173 ft 522 kts 89°
2026-05-01 08:00 40.43113 115.81547 23540 ft 476 kts 91°
2026-05-01 08:01 40.42977 115.94178 20333 ft 452 kts 91°
2026-05-01 08:01 40.42932 115.98262 19403 ft 443 kts 90°
2026-05-01 08:01 40.42888 116.02274 18492 ft 435 kts 90°
2026-05-01 08:02 40.42799 116.10072 16505 ft 420 kts 91°
2026-05-01 08:02 40.42751 116.13872 15537 ft 414 kts 91°
2026-05-01 08:03 40.42661 116.21310 13753 ft 399 kts 91°
2026-05-01 08:03 40.42616 116.24922 12773 ft 393 kts 91°
2026-05-01 08:03 40.42521 116.31968 11061 ft 380 kts 91°
2026-05-01 08:04 40.42437 116.38067 10614 ft 363 kts 91°
2026-05-01 08:04 40.42375 116.42341 10335 ft 336 kts 91°
2026-05-01 08:05 40.42287 116.48127 9943 ft 304 kts 92°
2026-05-01 08:05 40.42248 116.50834 9744 ft 292 kts 92°
2026-05-01 08:05 40.42207 116.53484 9732 ft 291 kts 92°
2026-05-01 08:06 40.42123 116.58853 9728 ft 296 kts 91°
2026-05-01 08:06 40.41890 116.64264 9474 ft 296 kts 108°
2026-05-01 08:07 40.39298 116.68045 9159 ft 282 kts 159°
2026-05-01 08:07 40.35499 116.69021 8684 ft 277 kts 177°
2026-05-01 08:08 40.33599 116.69296 8451 ft 273 kts 176°
2026-05-01 08:08 40.29828 116.69849 7782 ft 272 kts 175°
2026-05-01 08:09 40.26117 116.70400 7276 ft 267 kts 177°
2026-05-01 08:09 40.24276 116.70671 7007 ft 265 kts 176°
2026-05-01 08:09 40.22475 116.70949 6951 ft 258 kts 176°
2026-05-01 08:10 40.18852 116.71507 6909 ft 268 kts 175°
2026-05-01 08:10 40.15152 116.72082 6903 ft 266 kts 177°
2026-05-01 08:11 40.11517 116.72640 6907 ft 263 kts 176°
2026-05-01 08:11 40.07840 116.73204 6871 ft 267 kts 175°
2026-05-01 08:12 40.04138 116.73784 6884 ft 269 kts 176°
2026-05-01 08:12 40.02284 116.74069 6829 ft 269 kts 176°
2026-05-01 08:12 39.98626 116.74643 6606 ft 264 kts 176°
2026-05-01 08:13 39.96805 116.74945 6542 ft 263 kts 173°
2026-05-01 08:13 39.94985 116.75228 6386 ft 261 kts 184°
2026-05-01 08:13 39.92022 116.73036 6269 ft 253 kts 242°
2026-05-01 08:14 39.91527 116.70888 6169 ft 244 kts 260°
2026-05-01 08:14 39.91320 116.68739 6079 ft 234 kts 263°
2026-05-01 08:14 39.91237 116.66672 5972 ft 224 kts 274°
2026-05-01 08:14 39.91707 116.64764 5679 ft 224 kts 303°
2026-05-01 08:15 39.92820 116.63368 5380 ft 222 kts 324°
2026-05-01 08:15 39.95680 116.61730 4227 ft 219 kts 348°
2026-05-01 08:15 39.97115 116.61318 4017 ft 207 kts 351°
2026-05-01 08:16 39.98567 116.61083 3486 ft 215 kts 355°
2026-05-01 08:16 40.00047 116.60861 3125 ft 214 kts 353°
2026-05-01 08:16 40.01529 116.60641 3066 ft 218 kts 354°
2026-05-01 08:16 40.03040 116.60411 3056 ft 221 kts 354°
2026-05-01 08:17 40.04565 116.60168 3011 ft 220 kts 354°
2026-05-01 08:17 40.06012 116.59942 3007 ft 225 kts 354°
2026-05-01 08:17 40.07537 116.59709 2980 ft 222 kts 355°
2026-05-01 08:17 40.09060 116.59528 2992 ft 219 kts 356°
2026-05-01 08:18 40.10473 116.59373 2996 ft 222 kts 356°
2026-05-01 08:18 40.13746 116.59366 2961 ft 242 kts 21°
2026-05-01 08:19 40.15830 116.62306 2991 ft 227 kts 83°
2026-05-01 08:19 40.16063 116.64369 3002 ft 231 kts 86°
2026-05-01 08:19 40.16265 116.66459 2994 ft 231 kts 86°
2026-05-01 08:19 40.16460 116.68529 2996 ft 228 kts 87°
2026-05-01 08:20 40.16713 116.70565 2971 ft 228 kts 74°
2026-05-01 08:20 40.17602 116.72300 2987 ft 238 kts 44°
2026-05-01 08:20 40.19106 116.73195 3014 ft 244 kts
2026-05-01 08:20 40.20783 116.73130 3011 ft 245 kts 353°
2026-05-01 08:21 40.22232 116.72811 2976 ft 237 kts 351°
2026-05-01 08:21 40.23772 116.72228 3013 ft 228 kts 329°
2026-05-01 08:21 40.24780 116.71011 2997 ft 224 kts 299°
2026-05-01 08:21 40.25212 116.69119 2997 ft 215 kts 270°
2026-05-01 08:22 40.25246 116.67163 2983 ft 214 kts 266°
2026-05-01 08:22 40.25230 116.65216 2658 ft 213 kts 265°
2026-05-01 08:22 40.25219 116.63284 2283 ft 208 kts 265°
2026-05-01 08:22 40.25216 116.61451 2069 ft 194 kts 265°
2026-05-01 08:23 40.25203 116.59751 2021 ft 186 kts 262°
2026-05-01 08:23 40.24766 116.58225 1987 ft 178 kts 225°
2026-05-01 08:23 40.23739 116.57556 1995 ft 163 kts 180°
2026-05-01 08:23 40.22610 116.57594 2013 ft 164 kts 177°
2026-05-01 08:24 40.21433 116.57606 2004 ft 172 kts 175°
2026-05-01 08:24 40.20224 116.57725 2001 ft 176 kts 172°
2026-05-01 08:24 40.19004 116.57905 1992 ft 175 kts 172°
2026-05-01 08:24 40.17829 116.58089 1849 ft 167 kts 173°
2026-05-01 08:25 40.16717 116.58265 1625 ft 157 kts 172°
2026-05-01 08:25 40.16022 116.58373 1485 ft 140 kts 172°
2026-05-01 08:25 40.14839 116.58558 1281 ft 128 kts 170°
2026-05-01 08:25 40.13948 116.58701 1096 ft 132 kts 172°
2026-05-01 08:26 40.13014 116.58845 941 ft 135 kts 173°
2026-05-01 08:26 40.12069 116.58991 743 ft 139 kts 172°
2026-05-01 08:26 40.11140 116.59144 578 ft 130 kts 172°
2026-05-01 08:26 40.10259 116.59278 419 ft 131 kts 172°
2026-05-01 08:27 40.09643 116.59378 290 ft 136 kts 172°
2026-05-01 08:27 40.08690 116.59523 146 ft 137 kts 172°
2026-05-01 08:27 40.07835 116.59659 125 ft 110 kts 173°
2026-05-01 08:27 40.07231 116.59751 128 ft 63 kts 173°
2026-05-01 08:28 40.06994 116.59828 126 ft 39 kts 156°
2026-05-01 08:28 40.06844 116.59954 124 ft 10 kts 142°
2026-05-01 08:28 40.06831 116.59967 123 ft 0 kts 142°
2026-05-01 08:29 40.06823 116.59976 123 ft 7 kts 142°
2026-05-01 08:29 40.06778 116.60029 125 ft 9 kts 122°
2026-05-01 08:29 40.06770 116.60108 125 ft 9 kts 86°
2026-05-01 08:29 40.06775 116.60191 126 ft 10 kts 81°
2026-05-01 08:30 40.06784 116.60276 124 ft 10 kts 83°
2026-05-01 08:30 40.06792 116.60360 127 ft 10 kts 78°
2026-05-01 08:30 40.06838 116.60420 123 ft 10 kts 14°
2026-05-01 08:30 40.06907 116.60416 124 ft 10 kts 354°
2026-05-01 08:31 40.06978 116.60407 124 ft 10 kts 353°
2026-05-01 08:31 40.07050 116.60396 124 ft 11 kts 353°
2026-05-01 08:31 40.07128 116.60384 126 ft 12 kts 353°
2026-05-01 08:31 40.07210 116.60372 124 ft 11 kts 356°
2026-05-01 08:32 40.07262 116.60418 125 ft 8 kts 68°
2026-05-01 08:32 40.07270 116.60465 124 ft 3 kts 79°
2026-05-01 08:32 40.07272 116.60483 123 ft 2 kts 81°
2026-05-01 08:32 40.07273 116.60485 124 ft 0 kts 81°
2026-05-01 08:33 40.07273 116.60487 124 ft 1 kts 81°
2026-05-01 08:33 40.07272 116.60484 123 ft 0 kts 81°